Skip Page Navigation
NASA JPL Caltech
NASA Logo - Jet Propulsion Laboratory + View the NASA Portal
+ Center for Near-Earth Object Studies
JPL Home Earth Solar System Stars & Galaxies Technology
JPL Solar System Dynamics
BODIES ORBITS EPHEMERIDES TOOLS PHYSICAL DATA DISCOVERY FAQ SITE MAP
IMPORTANT: The SSD Announcement email list is now available. Major changes are coming in the near future, including possible hostname and/or URL changes. To be notified of such changes, subscribe to this email list.

Please visit this page for more details.


JPL Small-Body Database Browser
Search: [ help ]  
376078 (2010 UV61)
Classification: Main-belt Asteroid          SPK-ID: 2376078
Ephemeris | Orbit Diagram | Orbital Elements | Mission Design | Physical Parameters | Discovery Circumstances | Close-Approach Data ]

[ hide orbit diagram ]

For accurate long-term ephemerides, please instead use our Horizons system.This orbit viewer was implemented using two-body methods, and hence should not be used for determining accurate long-term trajectories (over several years or decades) or planetary encounter circumstances.


[ revert to old Java-based viewer ]

Orbital Elements at Epoch 2459000.5 (2020-May-31.0) TDB
Reference: JPL 14 (heliocentric ecliptic J2000)
 Element Value Uncertainty (1-sigma)   Units 
e .08180795055961573 6.026e-08  
a 2.206324381311154 1.7407e-08 au
q 2.025829505406377 1.3194e-07 au
i 5.23901615581818 7.4883e-06 deg
node 325.5358188868097 4.7557e-05 deg
peri 153.3403512865585 5.9959e-05 deg
M 261.4156067953557 3.717e-05 deg
tp 2459328.299389306682
(2021-Apr-23.79938931)
0.00012468 TDB
period 1197.022939578697
3.28
1.4166e-05
3.878e-08
d
yr
n .300746116132666 3.5591e-09 deg/d
Q 2.386819257215932 1.8831e-08 au
  Orbit Determination Parameters
   # obs. used (total)      196  
   data-arc span      6873 days (18.82 yr)  
   first obs. used      2000-09-07  
   last obs. used      2019-07-03  
   planetary ephem.      DE431  
   SB-pert. ephem.      SB431-N16  
   condition code      0  
   norm. resid. RMS      .55885  
   source      ORB  
   producer      Otto Matic  
   solution date      2019-Sep-24 06:55:26  

Additional Information
 Earth MOID = 1.04314 au 
 Jupiter MOID = 2.65731 au 
 T_jup = 3.651 
[ show covariance matrix ]

Ephemeris | Orbit Diagram | Orbital Elements | Mission Design | Physical Parameters | Discovery Circumstances | Close-Approach Data ]

Physical Parameter Table
Parameter Symbol Value Units Sigma Reference Notes
absolute magnitude H 17.4   n/a MPO437548  

376078 (2010 UV61)          Discovered 2004-Dec-20 by Mt. Lemmon Survey at Mount Lemmon
Reference: Last Updated: 2013-10-21

[ show close-approach data ]
Alternate Designations
 2010 UV61 = 2007 XF33 
Ephemeris | Orbit Diagram | Orbital Elements | Mission Design | Physical Parameters | Discovery Circumstances | Close-Approach Data ]
ABOUT SSD CREDITS/AWARDS PRIVACY/COPYRIGHT GLOSSARY LINKS
FirstGov 2020-Apr-08 00:01 UT
(server date/time)  
NASA Home Page
Site Manager:   Ryan S. Park
Webmaster  Alan B. Chamberlin